Current weather by "City, St" or "zip code"  
 
Advertise Here

Current Conditions: Joplin, Joplin Regional Airport, MO

Overcast


30.0 F

Last Updated on Jan 27 2021, 12:53 pm CST
Humidity: 79%
Wind Speed: N 11.5 mph
Barometer 30.36 in
Dewpoint: 24.1 F
Visibility: 10.00 mi
Precip: --
Heat Index: NA
Wind Chill: 20 F
Current conditions at:

Joplin, Joplin Regional Airport, MO (KJLN)

Lat: 37.15611 Lon: 94.50056

Local Radar Image active severe weather and emergency alerts image image weather storm and storm spotter reports image weather observation monitoring service image
Local
Radar
Active
Alerts
Storm Reports Obs
Monitoring

Sign-up For Email & Text Message Weather Alert Notification Services


Advertise Here

Observation History for Joplin, Joplin Regional Airport, MO


Time Wind
(mph)
Vis
(mi)
Weather Precip (in) Temperature (F) Relative
Humidity
Wind
Chill
(F)
Heat
Index
(F)
Pressure
Air Dwpt altimeter
(in)
sea level
(mb)
Rmks
12:53 pm CST N 11.5 10.00 Overcast -- 30.0 24.1 79% 20 NA 30.36 1029.0
11:53 am CST NW 9.2 10.00 Overcast -- 30.0 24.1 79% 22 NA 30.37 1029.2
10:53 am CST N 11.5 9.00 Overcast -- 29.0 24.1 82% 19 NA 30.35 1028.6
9:53 am CST N 10.4 9.00 Overcast -- 28.0 25.0 88% 19 NA 30.31 1027.4
8:53 am CST N 5.8 8.00 Overcast -- 28.0 26.1 92% 22 NA 30.28 1026.1
7:53 am CST N 6.9 6.00 Fog/Mist -- 28.0 25.0 88% 21 NA 30.25 1025.0
6:53 am CST N 6.9 7.00 Overcast 00.02 28.0 25.0 88% 21 NA 30.20 1023.5
5:53 am CST N 8.1 1.50 Light Snow Fog/Mist 00.03 28.0 26.1 92% 20 NA 30.18 1022.8
4:53 am CST N 6.9 1.50 Light Snow Fog/Mist 00.02 28.0 26.1 92% 21 NA 30.16 1022.2
3:53 am CST N 10.4 2.00 Light Snow Fog/Mist Trace 29.0 25.0 85% 20 NA 30.15 1021.6
2:53 am CST NE 9.2 10.00 Overcast -- 29.0 25.0 85% 20 NA 30.15 1021.6
1:53 am CST NE 8.1 10.00 Overcast -- 29.0 25.0 85% 21 NA 30.15 1021.8
12:53 am CST NE 6.9 10.00 Overcast -- 29.0 25.0 85% 22 NA 30.15 1021.7
11:53 pm CST N 9.2 10.00 Overcast -- 30.0 25.0 82% 22 NA 30.11 1020.2
10:53 pm CST NE 4.6 10.00 Overcast -- 30.0 25.0 82% 25 NA 30.09 1019.8
9:53 pm CST N 8.1 10.00 Overcast -- 30.0 26.1 85% 22 NA 30.12 1020.6
8:53 pm CST NE 5.8 10.00 Overcast -- 31.0 26.1 82% 25 NA 30.09 1019.8
7:53 pm CST E 8.1 10.00 Overcast -- 31.0 26.1 82% 24 NA 30.07 1019.1
6:53 pm CST NE 10.4 10.00 Overcast -- 31.0 26.1 82% 22 NA 30.05 1018.4
5:53 pm CST N 9.2 10.00 Overcast -- 31.0 26.1 82% 23 NA 30.04 1018.0
4:53 pm CST N 5.8 10.00 Overcast -- 32.0 26.1 79% 26 NA 30.05 1018.2
3:53 pm CST NE 9.2 10.00 Overcast -- 33.0 26.1 75% 25 NA 30.04 1018.0
2:53 pm CST N 10.4 10.00 Overcast -- 33.0 26.1 75% 25 NA 30.04 1017.7
1:53 pm CST N 9.2 10.00 Overcast -- 33.0 26.1 75% 25 NA 30.03 1017.5

Regional Weather Observation


Joplin, Joplin Regional Airport, MO (KJLN)

Overcast
30.0 F

Miami Regional Airport, OK (KMIO)

Fair
50.0 F

Parsons, Tri-City Airport, KS (KPPF)

Fair
63.0 F

Chanute, Chanute Martin Johnson Airport, KS (KCNU)

Overcast
30.0 F

Coffeyville, Coffeyville Municipal Airport, KS (KCFV)

Overcast
31.0 F

Allen County Airport, KS (KK88)

Overcast
29.0 F